Regional Weather Roundup
Issued by NWS

Home | Current Version | Previous Version | Text Only | Print | Product List | Glossary Off
Versions: 1 2 3 4 5 6 7 8 9 10 11 12 13 14 15 16 17 18 19 20 21 22 23 24 25 26 27 28 29 30 31 32 33 34 35 36 37 38 39 40 41 42 43 44 45 46 47 48 49 50

000
ASUS45 KCYS 300710
RWRWY

WYOMING REGIONAL WEATHER ROUNDUP
NATIONAL WEATHER SERVICE CHEYENNE WY
100 AM MDT SAT AUG 30 2014

NOTE:  "FAIR" INDICATES FEW OR NO CLOUDS BELOW 12,000 FEET
WITH NO SIGNIFICANT WEATHER AND/OR OBSTRUCTIONS TO VISIBILITY.

WYZ001-300800-
YELLOWSTONE NATIONAL PARK

CITY           SKY/WX    TMP DP  RH WIND       PRES   REMARKS
LK YELLOWSTONE   N/A     43  39  86 CALM      30.18F
W YELLOWSTONE  NOT AVBL

$$
WYZ002>013-054>058-071-098>099-300800-
NORTHERN WYOMING

CITY           SKY/WX    TMP DP  RH WIND       PRES   REMARKS
JACKSON        CLEAR     48  43  81 N3        30.10S
CODY           CLEAR     61  46  59 CALM      29.96F
GREYBULL       CLEAR     64  46  52 S5        29.90F
WORLAND        CLEAR     65  46  50 SE5       29.92F
SHERIDAN       CLEAR     55  48  77 S5        29.92F
BUFFALO        CLEAR     63  45  51 S12       30.01F
GILLETTE       CLEAR     61  52  72 S15       30.00F
HULETT         FAIR      57  50  77 MISG      30.03
NEWCASTLE      FAIR      59  50  72 SE7       30.06

$$
WYZ014>020-022>026-101>103-300800-
CENTRAL WYOMING

CITY           SKY/WX    TMP DP  RH WIND       PRES   REMARKS
BIG PINEY      PTCLDY    50  41  71 CALM      30.16F
PINEDALE       SUNNY     43  41  93 CALM      30.18S
DUBOIS         FAIR      50  36  57 W13       30.14F
LANDER         CLEAR     66  38  35 VRB3      30.02F
RIVERTON       CLEAR     58  41  53 NW9       30.03S
CASPER         CLEAR     53  45  74 N8        30.04F
DOUGLAS        CLEAR     57  49  74 SE12      30.06F

$$
WYZ021-027>030-104>119-300800-
SOUTHERN WYOMING

CITY           SKY/WX    TMP DP  RH WIND       PRES   REMARKS
EVANSTON       MOCLDY    57  40  52 S10       30.17F
KEMMERER       MOSUNNY   52  43  71 N5        30.18F
FORT BRIDGER   FAIR      61  41  47 S12       30.19F
ROCK SPRINGS   PTCLDY    62  35  36 SW12      30.15F
DIXON          FAIR      54  49  83 E6        30.21F
RAWLINS        CLEAR     61  41  47 W12       30.16S
SARATOGA       FAIR      61  41  48 SW16      30.19S
LARAMIE        PTCLDY    49  44  83 S3        30.22R
CHEYENNE       PTCLDY    52  47  83 W8        30.16F
TORRINGTON     CLEAR     58  54  86 SE9       30.05S
PINE BLUFFS    FAIR      50  46  87 CALM      30.14S

$$


USA.gov is the U.S. government's official web portal to all federal, state and local government web resources and services.